Tracking 19145 objects as of 25-Apr-2018
HD Live streaming from Space Station
objects crossing your sky now

COSMOS 505

Track COSMOS 505 now!
10-day predictions
COSMOS 505 is classified as:


NORAD ID: 6118
Int'l Code: 1972-057B
Perigee: 1,359.2 km
Apogee: 1,502.9 km
Inclination: 74.0 °
Period: 114.3 minutes
Semi major axis: 7802 km
RCS: 0.7076 m2 (medium)
Launch date: July 20, 1972
Source: Commonwealth of Independent States (former USSR) (CIS)
Launch site: PLESETSK MISSILE AND SPACE COMPLEX (PKMTR)
aabbcc
Your satellite tracking list
Your tracking list is empty




NASA's NSSDC Master Catalog

Two Line Element Set (TLE):
1 06118U 72057B   18115.04487729  .00000007  00000-0  13124-3 0  9995
2 06118  74.0254 280.5766 0092082  79.5332  54.3549 12.59769583104644
Source of the keplerian elements: AFSPC